{"data":{"norad_id":37818,"intl_designator":"2011-052A","name":"TACSAT 4","alt_names":[],"object_type":"PAYLOAD","status":"ACTIVE","operator":null,"country":"US","launch_date":"2011-09-27","launch_site_code":"KODAK","launch_vehicle":null,"mission":null,"orbit_class":"UNKNOWN","rcs_meters":6.3594,"size_class":null,"mass_kg":null,"dimensions":null,"purposes":[],"wikipedia_slug":null,"has_3d_model":false,"image_url":null,"decayed_at":null,"tle_current":{"epoch":"2026-09-15T16:54:20.197152Z","epoch_age_seconds":443566,"freshness":"STALE","line1":"1 37818U 11052A   26258.70440043  .00001259  00000+0  49095-3 0  9997","line2":"2 37818  62.8473  57.7712 4628448 286.5725  28.7829  6.15746560330360","mean_motion":6.1574656,"eccentricity":0.4628448,"inclination_deg":62.8473,"raan_deg":57.7712,"arg_perigee_deg":286.5725,"mean_anomaly_deg":28.7829,"bstar":0.00049095,"rev_number":33036,"period_min":233.86245146055,"perigee_km":375.95485695669,"apogee_km":12015.407643469,"semimajor_km":12573.818250213,"source":"CELESTRAK","updated_at":"2026-09-20T09:00:13.810404Z"}}}